Weather History for Farmville, VA

Change the Weather History Date:

Sunday, January 27, 2013

  Actual Average Record
Temperature  
Mean Temperature 31 °F -  
Max Temperature 39 °F 47 °F 76 °F (1944)
Min Temperature 23 °F 24 °F -15 °F (1940)
Degree Days  
Heating Degree Days 34    
Moisture  
Dew Point 22 °F    
Average Humidity 69    
Maximum Humidity 100    
Minimum Humidity 45    
Precipitation  
Precipitation 0.00 in - - ()
Sea Level Pressure  
Sea Level Pressure 30.50 in    
Wind  
Wind Speed 2 mph (SSW)    
Max Wind Speed 8 mph    
Max Gust Speed -    
Visibility 9 miles    
Events      
Averages and records for this station are not official NWS values.
T = Trace of Precipitation, MM = Missing Value Source: NWS Daily Summary

Daily Weather History Graph

Daily Weather History Graph

Search for Another Location

Airport:

Trip Planner

Search our weather history database for the weather conditions in past years. The results will help you decide how hot, cold, wet, or windy it might be!

Date:

Astronomy

Jan. 27, 2013 Rise Set
Actual Time 7:20 AM EST 5:32 PM EST
Civil Twilight 6:52 AM EST 6:00 PM EST
Nautical Twilight 6:21 AM EST 6:32 PM EST
Astronomical Twilight 5:50 AM EST 7:03 PM EST
Moon 6:23 PM EST (1/27) 7:14 AM EST (1/27)
Length of Visible Light 11h 07m
Length of Day
10h 12m
Full, 100% of the Moon is Illuminated
Jan 27
Full
Feb 3
Last Quarter
Feb 10
New
Feb 17
First Quarter
Feb 25
Full

Hourly Weather History & Observations

Time (EST) Temp. Windchill Dew Point Humidity Pressure Visibility Wind Dir Wind Speed Gust Speed Precip Events Conditions
12:15 AM 28.4 °F 23.3 °F 23.0 °F 80% 30.41 in 10.0 mi North 4.6 mph - N/A   Overcast
12:35 AM 30.2 °F 26.7 °F 23.0 °F 75% 30.41 in 10.0 mi North 3.5 mph - N/A   Overcast
12:55 AM 30.2 °F 26.7 °F 23.0 °F 75% 30.41 in 10.0 mi North 3.5 mph - N/A   Overcast
1:15 AM 30.2 °F 26.7 °F 23.0 °F 75% 30.41 in 10.0 mi North 3.5 mph - N/A   Overcast
1:35 AM 28.4 °F 24.6 °F 23.0 °F 80% 30.42 in 10.0 mi North 3.5 mph - N/A   Overcast
1:55 AM 28.4 °F - 23.0 °F 80% 30.43 in 10.0 mi Calm Calm - N/A   Mostly Cloudy
2:15 AM 28.4 °F - 24.8 °F 86% 30.44 in 10.0 mi Calm Calm - N/A   Clear
2:35 AM 28.4 °F - 24.8 °F 86% 30.45 in 10.0 mi Calm Calm - N/A   Scattered Clouds
2:55 AM 26.6 °F 22.6 °F 24.8 °F 93% 30.45 in 7.0 mi North 3.5 mph - N/A   Clear
3:15 AM 26.6 °F - 24.8 °F 93% 30.45 in 10.0 mi Calm Calm - N/A   Clear
3:35 AM 23.0 °F - 21.2 °F 93% 30.44 in 5.0 mi Calm Calm - N/A   Scattered Clouds
3:55 AM 24.8 °F - 24.8 °F 100% 30.45 in 7.0 mi Calm Calm - N/A   Mostly Cloudy
4:15 AM 23.0 °F - 21.2 °F 93% 30.44 in 5.0 mi Calm Calm - N/A   Overcast
4:35 AM 24.8 °F - 23.0 °F 93% 30.44 in 5.0 mi Calm Calm - N/A   Overcast
4:55 AM 23.0 °F - 21.2 °F 93% 30.44 in 7.0 mi Calm Calm - N/A   Overcast
5:15 AM 24.8 °F - 23.0 °F 93% 30.45 in 7.0 mi Calm Calm - N/A   Overcast
5:35 AM 26.6 °F - 24.8 °F 93% 30.47 in 7.0 mi Calm Calm - N/A   Overcast
5:55 AM 26.6 °F - 24.8 °F 93% 30.48 in 7.0 mi Calm Calm - N/A   Overcast
6:15 AM 26.6 °F - 24.8 °F 93% 30.49 in 7.0 mi Calm Calm - N/A   Overcast
6:35 AM 28.4 °F - 24.8 °F 86% 30.50 in 7.0 mi Calm Calm - N/A   Overcast
7:15 AM 26.6 °F - 24.8 °F 93% 30.51 in 7.0 mi Calm Calm - N/A   Overcast
7:35 AM 26.6 °F - 24.8 °F 93% 30.53 in 7.0 mi Calm Calm - N/A   Overcast
7:55 AM 28.4 °F - 26.6 °F 93% 30.54 in 7.0 mi Calm Calm - N/A   Overcast
8:15 AM 28.4 °F - 26.6 °F 93% 30.54 in 7.0 mi Calm Calm - N/A   Overcast
8:35 AM 28.4 °F - 26.6 °F 93% 30.55 in 7.0 mi Calm Calm - N/A   Overcast
8:55 AM 28.4 °F - 26.6 °F 93% 30.56 in 7.0 mi Calm Calm - N/A   Overcast
9:15 AM 30.2 °F - 26.6 °F 86% 30.56 in 7.0 mi Calm Calm - N/A   Overcast
9:35 AM 30.2 °F - 23.0 °F 75% 30.56 in 10.0 mi Calm Calm - N/A   Overcast
9:55 AM 33.8 °F - 23.0 °F 65% 30.57 in 10.0 mi Calm Calm - N/A   Overcast
10:15 AM 33.8 °F - 21.2 °F 60% 30.58 in 10.0 mi Calm Calm - N/A   Overcast
10:35 AM 33.8 °F - 21.2 °F 60% 30.58 in 10.0 mi Calm Calm - N/A   Overcast
10:55 AM 33.8 °F - 21.2 °F 60% 30.59 in 10.0 mi Calm Calm - N/A   Overcast
11:15 AM 33.8 °F 29.6 °F 19.4 °F 56% 30.59 in 10.0 mi SSE 4.6 mph - N/A   Overcast
11:35 AM 33.8 °F 30.8 °F 19.4 °F 56% 30.58 in 10.0 mi South 3.5 mph - N/A   Overcast
11:55 AM 35.6 °F - 19.4 °F 52% 30.58 in 10.0 mi Calm Calm - N/A   Overcast
12:15 PM 35.6 °F - 19.4 °F 52% 30.57 in 10.0 mi Calm Calm - N/A   Overcast
12:35 PM 35.6 °F - 19.4 °F 52% 30.55 in 10.0 mi Calm Calm - N/A   Overcast
12:55 PM 35.6 °F 31.7 °F 21.2 °F 56% 30.54 in 10.0 mi South 4.6 mph - N/A   Overcast
1:15 PM 37.4 °F 31.4 °F 21.2 °F 52% 30.52 in 10.0 mi South 8.1 mph - N/A   Overcast
1:35 PM 37.4 °F 34.9 °F 19.4 °F 48% 30.51 in 10.0 mi SSE 3.5 mph - N/A   Scattered Clouds
1:55 PM 39.2 °F 35.9 °F 19.4 °F 45% 30.50 in 10.0 mi SSW 4.6 mph - N/A   Mostly Cloudy
2:15 PM 37.4 °F 32.8 °F 19.4 °F 48% 30.50 in 10.0 mi SSW 5.8 mph - N/A   Mostly Cloudy
2:35 PM 39.2 °F 35.0 °F 19.4 °F 45% 30.50 in 10.0 mi SW 5.8 mph - N/A   Scattered Clouds
2:55 PM 39.2 °F 35.0 °F 19.4 °F 45% 30.50 in 10.0 mi SW 5.8 mph - N/A   Clear
3:15 PM 39.2 °F 34.2 °F 19.4 °F 45% 30.50 in 10.0 mi WSW 6.9 mph - N/A   Clear
3:35 PM 39.2 °F 35.0 °F 19.4 °F 45% 30.50 in 10.0 mi SW 5.8 mph - N/A   Clear
3:55 PM 39.2 °F 34.2 °F 19.4 °F 45% 30.50 in 10.0 mi SSW 6.9 mph - N/A   Clear
4:15 PM 39.2 °F 35.0 °F 19.4 °F 45% 30.50 in 10.0 mi SW 5.8 mph - N/A   Clear
4:35 PM 39.2 °F 34.2 °F 19.4 °F 45% 30.50 in 10.0 mi SSW 6.9 mph - N/A   Clear
4:55 PM 39.2 °F 35.9 °F 19.4 °F 45% 30.50 in 10.0 mi SW 4.6 mph - N/A   Clear
5:15 PM 39.2 °F 34.2 °F 19.4 °F 45% 30.51 in 10.0 mi SW 6.9 mph - N/A   Clear
5:35 PM 37.4 °F 32.8 °F 19.4 °F 48% 30.51 in 10.0 mi SSW 5.8 mph - N/A   Clear
5:55 PM 35.6 °F 32.8 °F 19.4 °F 52% 30.51 in 10.0 mi SSW 3.5 mph - N/A   Clear
6:15 PM 33.8 °F 30.8 °F 21.2 °F 60% 30.50 in 10.0 mi South 3.5 mph - N/A   Clear
6:35 PM 35.6 °F - 19.4 °F 52% 30.51 in 10.0 mi Calm Calm - N/A   Clear
6:55 PM 33.8 °F - 21.2 °F 60% 30.50 in 10.0 mi Calm Calm - N/A   Clear
7:15 PM 33.8 °F - 19.4 °F 56% 30.50 in 10.0 mi Calm Calm - N/A   Clear
7:35 PM 33.8 °F - 19.4 °F 56% 30.51 in 10.0 mi Calm Calm - N/A   Clear
7:55 PM 33.8 °F - 19.4 °F 56% 30.50 in 10.0 mi Calm Calm - N/A   Clear
8:15 PM 32.0 °F - 19.4 °F 60% 30.50 in 10.0 mi Calm Calm - N/A   Clear
8:35 PM 33.8 °F - 21.2 °F 60% 30.49 in 10.0 mi Calm Calm - N/A   Clear
8:55 PM 30.2 °F - 21.2 °F 69% 30.49 in 10.0 mi Calm Calm - N/A   Clear
9:15 PM 32.0 °F - 21.2 °F 64% 30.49 in 10.0 mi Calm Calm - N/A   Clear
9:35 PM 30.2 °F - 23.0 °F 75% 30.49 in 10.0 mi Calm Calm - N/A   Clear
9:55 PM 30.2 °F - 21.2 °F 69% 30.47 in 10.0 mi Calm Calm - N/A   Clear
10:15 PM 30.2 °F - 21.2 °F 69% 30.49 in 10.0 mi Calm Calm - N/A   Clear
10:35 PM 30.2 °F - 21.2 °F 69% 30.48 in 10.0 mi Calm Calm - N/A   Clear
10:55 PM 30.2 °F 26.7 °F 23.0 °F 75% 30.48 in 10.0 mi SSW 3.5 mph - N/A   Scattered Clouds
11:15 PM 30.2 °F - 21.2 °F 69% 30.47 in 10.0 mi Calm Calm - N/A   Mostly Cloudy
11:35 PM 30.2 °F - 23.0 °F 75% 30.46 in 10.0 mi Calm Calm - N/A   Overcast
11:55 PM 32.0 °F - 21.2 °F 64% 30.47 in 10.0 mi Calm Calm - N/A   Overcast